Location: *
(58.7167°N, 26.1833°E)
Time: 00:15:02
(UTC+00:00)

NOSS 3-3 (A) - Pass Details

Date: 25 August 2019
Orbit: 849 x 1363 km, 63.4° (Epoch: 08 October)

Event Time Altitude Azimuth Distance (km) Brightness Sun altitude
Exits shadow 23:18:05 34° 201° (SSW) 1,543 4.5 -19.6°
Maximum altitude 23:20:49 62° 136° (SE) 1,131 4.1 -19.5°
Drops below altitude 10° 23:27:42 10° 58° (ENE) 2,984 7.2 -19.2°
Sets 23:30:35 0° 55° (NE) 4,026 8.1 -19.1°
